Year,Month,Day,Hour,Minute,Value (Times are PST for temperature in C)
2013,05,04,00,00,10.80
2013,05,04,00,01,10.80
2013,05,04,00,02,10.80
2013,05,04,00,03,10.80
2013,05,04,00,04,10.90
2013,05,04,00,05,10.90
2013,05,04,00,06,10.90
2013,05,04,00,07,10.90
2013,05,04,00,08,10.90
2013,05,04,00,09,10.80
2013,05,04,00,10,10.80
2013,05,04,00,11,10.80
2013,05,04,00,12,10.80
2013,05,04,00,13,10.80
2013,05,04,00,14,10.70
2013,05,04,00,15,10.70
2013,05,04,00,16,10.70
2013,05,04,00,17,10.70
2013,05,04,00,18,10.70
2013,05,04,00,19,10.60
2013,05,04,00,20,10.60
2013,05,04,00,21,10.60
2013,05,04,00,22,10.60
2013,05,04,00,23,10.60
2013,05,04,00,24,10.60
2013,05,04,00,25,10.50
2013,05,04,00,26,10.50
2013,05,04,00,27,10.50
2013,05,04,00,28,10.60
2013,05,04,00,29,10.50
2013,05,04,00,30,10.50
2013,05,04,00,31,10.50
2013,05,04,00,32,10.40
2013,05,04,00,33,10.40
2013,05,04,00,34,10.40
2013,05,04,00,35,10.40
2013,05,04,00,36,10.40
2013,05,04,00,37,10.40
2013,05,04,00,38,10.40
2013,05,04,00,39,10.30
2013,05,04,00,40,10.30
2013,05,04,00,41,10.30
2013,05,04,00,42,10.20
2013,05,04,00,43,10.20
2013,05,04,00,44,10.20
2013,05,04,00,45,10.20
2013,05,04,00,46,10.20
2013,05,04,00,47,10.20
2013,05,04,00,48,10.20
2013,05,04,00,49,10.10
2013,05,04,00,50,10.10
2013,05,04,00,51,10.10
2013,05,04,00,52,10.10
2013,05,04,00,53,10.10
2013,05,04,00,54,10.10
2013,05,04,00,55,10.00
2013,05,04,00,56,10.00
2013,05,04,00,57,10.00
2013,05,04,00,58,10.00
2013,05,04,00,59,10.00
2013,05,04,01,00,10.00
2013,05,04,01,01,10.00
2013,05,04,01,02,10.00
2013,05,04,01,03,10.00
2013,05,04,01,04,10.10
2013,05,04,01,05,10.10
2013,05,04,01,06,10.00
2013,05,04,01,07,10.00
2013,05,04,01,08,10.00
2013,05,04,01,09,10.00
2013,05,04,01,10,9.90
2013,05,04,01,11,9.90
2013,05,04,01,12,9.90
2013,05,04,01,13,9.90
2013,05,04,01,14,9.90
2013,05,04,01,15,9.90
2013,05,04,01,16,9.90
2013,05,04,01,17,9.90
2013,05,04,01,18,9.90
2013,05,04,01,19,9.90
2013,05,04,01,20,9.80
2013,05,04,01,21,9.80
2013,05,04,01,22,9.80
2013,05,04,01,23,9.80
2013,05,04,01,24,9.70
2013,05,04,01,25,9.70
2013,05,04,01,26,9.70
2013,05,04,01,27,9.70
2013,05,04,01,28,9.70
2013,05,04,01,29,9.70
2013,05,04,01,30,9.70
2013,05,04,01,31,9.70
2013,05,04,01,32,9.70
2013,05,04,01,33,9.80
2013,05,04,01,34,9.80
2013,05,04,01,35,9.70
2013,05,04,01,36,9.70
2013,05,04,01,37,9.70
2013,05,04,01,38,9.70
2013,05,04,01,39,9.70
2013,05,04,01,40,9.70
2013,05,04,01,41,9.70
2013,05,04,01,42,9.70
2013,05,04,01,43,9.80
2013,05,04,01,44,9.80
2013,05,04,01,45,9.80
2013,05,04,01,46,9.80
2013,05,04,01,47,9.80
2013,05,04,01,48,9.80
2013,05,04,01,49,9.80
2013,05,04,01,50,9.90
2013,05,04,01,51,9.90
2013,05,04,01,52,9.90
2013,05,04,01,53,10.00
2013,05,04,01,54,10.10
2013,05,04,01,55,10.10
2013,05,04,01,56,10.10
2013,05,04,01,57,10.20
2013,05,04,01,58,10.20
2013,05,04,01,59,10.30
2013,05,04,02,00,10.30
2013,05,04,02,01,10.30
2013,05,04,02,02,10.30
2013,05,04,02,03,10.40
2013,05,04,02,04,10.40
2013,05,04,02,05,10.40
2013,05,04,02,06,10.40
2013,05,04,02,07,10.40
2013,05,04,02,08,10.40
2013,05,04,02,09,10.40
2013,05,04,02,10,10.40
2013,05,04,02,11,10.50
2013,05,04,02,12,10.50
2013,05,04,02,13,10.60
2013,05,04,02,14,10.60
2013,05,04,02,15,10.60
2013,05,04,02,16,10.60
2013,05,04,02,17,10.60
2013,05,04,02,18,10.50
2013,05,04,02,19,10.50
2013,05,04,02,20,10.40
2013,05,04,02,21,10.40
2013,05,04,02,22,10.40
2013,05,04,02,23,10.30
2013,05,04,02,24,10.30
2013,05,04,02,25,10.30
2013,05,04,02,26,10.30
2013,05,04,02,27,10.20
2013,05,04,02,28,10.20
2013,05,04,02,29,10.30
2013,05,04,02,30,10.30
2013,05,04,02,31,10.30
2013,05,04,02,32,10.30
2013,05,04,02,33,10.30
2013,05,04,02,34,10.20
2013,05,04,02,35,10.20
2013,05,04,02,36,10.10
2013,05,04,02,37,10.10
2013,05,04,02,38,10.10
2013,05,04,02,39,10.10
2013,05,04,02,40,10.10
2013,05,04,02,41,10.10
2013,05,04,02,42,10.10
2013,05,04,02,43,10.10
2013,05,04,02,44,10.00
2013,05,04,02,45,10.00
2013,05,04,02,46,9.90
2013,05,04,02,47,9.90
2013,05,04,02,48,9.80
2013,05,04,02,49,9.80
2013,05,04,02,50,9.70
2013,05,04,02,51,9.70
2013,05,04,02,52,9.70
2013,05,04,02,53,9.70
2013,05,04,02,54,9.70
2013,05,04,02,55,9.70
2013,05,04,02,56,9.60
2013,05,04,02,57,9.60
2013,05,04,02,58,9.60
2013,05,04,02,59,9.60
2013,05,04,03,00,9.50
2013,05,04,03,01,9.50
2013,05,04,03,02,9.50
2013,05,04,03,03,9.40
2013,05,04,03,04,9.40
2013,05,04,03,05,9.40
2013,05,04,03,06,9.40
2013,05,04,03,07,9.40
2013,05,04,03,08,9.40
2013,05,04,03,09,9.30
2013,05,04,03,10,9.30
2013,05,04,03,11,9.30
2013,05,04,03,12,9.30
2013,05,04,03,13,9.30
2013,05,04,03,14,9.30
2013,05,04,03,15,9.30
2013,05,04,03,16,9.30
2013,05,04,03,17,9.30
2013,05,04,03,18,9.30
2013,05,04,03,19,9.30
2013,05,04,03,20,9.30
2013,05,04,03,21,9.30
2013,05,04,03,22,9.30
2013,05,04,03,23,9.30
2013,05,04,03,24,9.30
2013,05,04,03,25,9.30
2013,05,04,03,26,9.20
2013,05,04,03,27,9.20
2013,05,04,03,28,9.20
2013,05,04,03,29,9.10
2013,05,04,03,30,9.10
2013,05,04,03,31,9.10
2013,05,04,03,32,9.00
2013,05,04,03,33,9.00
2013,05,04,03,34,9.00
2013,05,04,03,35,9.00
2013,05,04,03,36,9.00
2013,05,04,03,37,9.00
2013,05,04,03,38,9.00
2013,05,04,03,39,8.90
2013,05,04,03,40,8.90
2013,05,04,03,41,8.90
2013,05,04,03,42,8.80
2013,05,04,03,43,8.80
2013,05,04,03,44,8.80
2013,05,04,03,45,8.80
2013,05,04,03,46,8.70
2013,05,04,03,47,8.70
2013,05,04,03,48,8.70
2013,05,04,03,49,8.60
2013,05,04,03,50,8.60
2013,05,04,03,51,8.60
2013,05,04,03,52,8.60
2013,05,04,03,53,8.60
2013,05,04,03,54,8.50
2013,05,04,03,55,8.50
2013,05,04,03,56,8.50
2013,05,04,03,57,8.50
2013,05,04,03,58,8.40
2013,05,04,03,59,8.50
2013,05,04,04,00,8.50
2013,05,04,04,01,8.50
2013,05,04,04,02,8.50
2013,05,04,04,03,8.50
2013,05,04,04,04,8.50
2013,05,04,04,05,8.50
2013,05,04,04,06,8.50
2013,05,04,04,07,8.50
2013,05,04,04,08,8.50
2013,05,04,04,09,8.50
2013,05,04,04,10,8.50
2013,05,04,04,11,8.50
2013,05,04,04,12,8.60
2013,05,04,04,13,8.60
2013,05,04,04,14,8.60
2013,05,04,04,15,8.60
2013,05,04,04,16,8.70
2013,05,04,04,17,8.80
2013,05,04,04,18,8.80
2013,05,04,04,19,8.90
2013,05,04,04,20,8.80
2013,05,04,04,21,8.80
2013,05,04,04,22,8.80
2013,05,04,04,23,8.80
2013,05,04,04,24,8.80
2013,05,04,04,25,8.80
2013,05,04,04,26,8.70
2013,05,04,04,27,8.70
2013,05,04,04,28,8.70
2013,05,04,04,29,8.70
2013,05,04,04,30,8.70
2013,05,04,04,31,8.70
2013,05,04,04,32,8.60
2013,05,04,04,33,8.70
2013,05,04,04,34,8.70
2013,05,04,04,35,8.70
2013,05,04,04,36,8.70
2013,05,04,04,37,8.70
2013,05,04,04,38,8.70
2013,05,04,04,39,8.80
2013,05,04,04,40,8.80
2013,05,04,04,41,8.70
2013,05,04,04,42,8.70
2013,05,04,04,43,8.70
2013,05,04,04,44,8.60
2013,05,04,04,45,8.60
2013,05,04,04,46,8.60
2013,05,04,04,47,8.60
2013,05,04,04,48,8.60
2013,05,04,04,49,8.50
2013,05,04,04,50,8.50
2013,05,04,04,51,8.50
2013,05,04,04,52,8.40
2013,05,04,04,53,8.40
2013,05,04,04,54,8.30
2013,05,04,04,55,8.30
2013,05,04,04,56,8.30
2013,05,04,04,57,8.30
2013,05,04,04,58,8.30
2013,05,04,04,59,8.30
2013,05,04,05,00,8.30
2013,05,04,05,01,8.30
2013,05,04,05,02,8.30
2013,05,04,05,03,8.30
2013,05,04,05,04,8.20
2013,05,04,05,05,8.20
2013,05,04,05,06,8.10
2013,05,04,05,07,8.10
2013,05,04,05,08,8.00
2013,05,04,05,09,8.00
2013,05,04,05,10,8.00
2013,05,04,05,11,8.00
2013,05,04,05,12,7.90
2013,05,04,05,13,7.90
2013,05,04,05,14,7.90
2013,05,04,05,15,7.80
2013,05,04,05,16,7.80
2013,05,04,05,17,7.80
2013,05,04,05,18,7.90
2013,05,04,05,19,7.90
2013,05,04,05,20,7.90
2013,05,04,05,21,7.90
2013,05,04,05,22,7.90
2013,05,04,05,23,7.90
2013,05,04,05,24,7.80
2013,05,04,05,25,7.80
2013,05,04,05,26,7.80
2013,05,04,05,27,7.80
2013,05,04,05,28,7.80
2013,05,04,05,29,7.80
2013,05,04,05,30,7.80
2013,05,04,05,31,7.90
2013,05,04,05,32,7.90
2013,05,04,05,33,7.90
2013,05,04,05,34,7.90
2013,05,04,05,35,7.90
2013,05,04,05,36,8.00
2013,05,04,05,37,8.00
2013,05,04,05,38,8.00
2013,05,04,05,39,8.10
2013,05,04,05,40,8.10
2013,05,04,05,41,8.10
2013,05,04,05,42,8.00
2013,05,04,05,43,8.00
2013,05,04,05,44,7.90
2013,05,04,05,45,7.90
2013,05,04,05,46,7.90
2013,05,04,05,47,7.90
2013,05,04,05,48,7.80
2013,05,04,05,49,7.80
2013,05,04,05,50,7.80
2013,05,04,05,51,7.80
2013,05,04,05,52,7.70
2013,05,04,05,53,7.70
2013,05,04,05,54,7.70
2013,05,04,05,55,7.70
2013,05,04,05,56,7.70
2013,05,04,05,57,7.70
2013,05,04,05,58,7.70
2013,05,04,05,59,7.60
2013,05,04,06,00,7.60
2013,05,04,06,01,7.60
2013,05,04,06,02,7.60
2013,05,04,06,03,7.60
2013,05,04,06,04,7.60
2013,05,04,06,05,7.60
2013,05,04,06,06,7.50
2013,05,04,06,07,7.50
2013,05,04,06,08,7.50
2013,05,04,06,09,7.50
2013,05,04,06,10,7.50
2013,05,04,06,11,7.50
2013,05,04,06,12,7.40
2013,05,04,06,13,7.50
2013,05,04,06,14,7.50
2013,05,04,06,15,7.50
2013,05,04,06,16,7.50
2013,05,04,06,17,7.50
2013,05,04,06,18,7.50
2013,05,04,06,19,7.50
2013,05,04,06,20,7.50
2013,05,04,06,21,7.60
2013,05,04,06,22,7.60
2013,05,04,06,23,7.70
2013,05,04,06,24,7.90
2013,05,04,06,25,8.00
2013,05,04,06,26,8.10
2013,05,04,06,27,8.10
2013,05,04,06,28,8.10
2013,05,04,06,29,8.20
2013,05,04,06,30,8.20
2013,05,04,06,31,8.20
2013,05,04,06,32,8.20
2013,05,04,06,33,8.30
2013,05,04,06,34,8.30
2013,05,04,06,35,8.40
2013,05,04,06,36,8.50
2013,05,04,06,37,8.60
2013,05,04,06,38,8.60
2013,05,04,06,39,8.60
2013,05,04,06,40,8.70
2013,05,04,06,41,8.80
2013,05,04,06,42,8.80
2013,05,04,06,43,8.80
2013,05,04,06,44,8.80
2013,05,04,06,45,8.90
2013,05,04,06,46,8.90
2013,05,04,06,47,9.00
2013,05,04,06,48,9.10
2013,05,04,06,49,9.10
2013,05,04,06,50,9.20
2013,05,04,06,51,9.20
2013,05,04,06,52,9.30
2013,05,04,06,53,9.40
2013,05,04,06,54,9.50
2013,05,04,06,55,9.60
2013,05,04,06,56,9.70
2013,05,04,06,57,9.80
2013,05,04,06,58,9.90
2013,05,04,06,59,10.00
2013,05,04,07,00,10.10
2013,05,04,07,01,10.20
2013,05,04,07,02,10.30
2013,05,04,07,03,10.40
2013,05,04,07,04,10.50
2013,05,04,07,05,10.60
2013,05,04,07,06,10.70
2013,05,04,07,07,10.80
2013,05,04,07,08,10.90
2013,05,04,07,09,11.00
2013,05,04,07,10,11.20
2013,05,04,07,11,11.30
2013,05,04,07,12,11.40
2013,05,04,07,13,11.60
2013,05,04,07,14,11.70
2013,05,04,07,15,11.80
2013,05,04,07,16,12.00
2013,05,04,07,17,12.10
2013,05,04,07,18,12.30
2013,05,04,07,19,12.40
2013,05,04,07,20,12.50
2013,05,04,07,21,12.70
2013,05,04,07,22,12.80
2013,05,04,07,23,13.00
2013,05,04,07,24,13.10
2013,05,04,07,25,13.30
2013,05,04,07,26,13.30
2013,05,04,07,27,13.40
2013,05,04,07,28,13.50
2013,05,04,07,29,13.60
2013,05,04,07,30,13.60
2013,05,04,07,31,13.70
2013,05,04,07,32,13.70
2013,05,04,07,33,13.80
2013,05,04,07,34,13.80
2013,05,04,07,35,13.90
2013,05,04,07,36,13.90
2013,05,04,07,37,14.00
2013,05,04,07,38,14.00
2013,05,04,07,39,14.10
2013,05,04,07,40,14.10
2013,05,04,07,41,14.10
2013,05,04,07,42,14.20
2013,05,04,07,43,14.20
2013,05,04,07,44,14.20
2013,05,04,07,45,14.30
2013,05,04,07,46,14.30
2013,05,04,07,47,14.30
2013,05,04,07,48,14.40
2013,05,04,07,49,14.50
2013,05,04,07,50,14.50
2013,05,04,07,51,14.60
2013,05,04,07,52,14.70
2013,05,04,07,53,14.80
2013,05,04,07,54,14.90
2013,05,04,07,55,15.00
2013,05,04,07,56,15.00
2013,05,04,07,57,15.00
2013,05,04,07,58,15.00
2013,05,04,07,59,15.00
2013,05,04,08,00,15.00
2013,05,04,08,01,15.00
2013,05,04,08,02,15.00
2013,05,04,08,03,15.00
2013,05,04,08,04,15.00
2013,05,04,08,05,15.00
2013,05,04,08,06,15.10
2013,05,04,08,07,15.10
2013,05,04,08,08,15.10
2013,05,04,08,09,15.20
2013,05,04,08,10,15.20
2013,05,04,08,11,15.30
2013,05,04,08,12,15.30
2013,05,04,08,13,15.40
2013,05,04,08,14,15.40
2013,05,04,08,15,15.30
2013,05,04,08,16,15.30
2013,05,04,08,17,15.30
2013,05,04,08,18,15.30
2013,05,04,08,19,15.20
2013,05,04,08,20,15.20
2013,05,04,08,21,15.20
2013,05,04,08,22,15.20
2013,05,04,08,23,15.20
2013,05,04,08,24,15.10
2013,05,04,08,25,15.10
2013,05,04,08,26,15.00
2013,05,04,08,27,15.00
2013,05,04,08,28,15.10
2013,05,04,08,29,15.10
2013,05,04,08,30,15.10
2013,05,04,08,31,15.10
2013,05,04,08,32,15.00
2013,05,04,08,33,15.00
2013,05,04,08,34,15.00
2013,05,04,08,35,15.00
2013,05,04,08,36,15.10
2013,05,04,08,37,15.10
2013,05,04,08,38,15.00
2013,05,04,08,39,15.10
2013,05,04,08,40,15.10
2013,05,04,08,41,15.20
2013,05,04,08,42,15.30
2013,05,04,08,43,15.30
2013,05,04,08,44,15.40
2013,05,04,08,45,15.40
2013,05,04,08,46,15.40
2013,05,04,08,47,15.40
2013,05,04,08,48,15.50
2013,05,04,08,49,15.50
2013,05,04,08,50,15.60
2013,05,04,08,51,15.60
2013,05,04,08,52,15.70
2013,05,04,08,53,15.80
2013,05,04,08,54,15.80
2013,05,04,08,55,15.80
2013,05,04,08,56,15.80
2013,05,04,08,57,15.70
2013,05,04,08,58,15.70
2013,05,04,08,59,15.70
2013,05,04,09,00,15.70
2013,05,04,09,01,15.70
2013,05,04,09,02,15.80
2013,05,04,09,03,15.90
2013,05,04,09,04,16.00
2013,05,04,09,05,16.00
2013,05,04,09,06,16.10
2013,05,04,09,07,16.10
2013,05,04,09,08,16.20
2013,05,04,09,09,16.20
2013,05,04,09,10,16.20
2013,05,04,09,11,16.30
2013,05,04,09,12,16.30
2013,05,04,09,13,16.30
2013,05,04,09,14,16.30
2013,05,04,09,15,16.30
2013,05,04,09,16,16.30
2013,05,04,09,17,16.30
2013,05,04,09,18,16.30
2013,05,04,09,19,16.30
2013,05,04,09,20,16.30
2013,05,04,09,21,16.30
2013,05,04,09,22,16.30
2013,05,04,09,23,16.20
2013,05,04,09,24,16.20
2013,05,04,09,25,16.20
2013,05,04,09,26,16.30
2013,05,04,09,27,16.30
2013,05,04,09,28,16.20
2013,05,04,09,29,16.20
2013,05,04,09,30,16.20
2013,05,04,09,31,16.20
2013,05,04,09,32,16.30
2013,05,04,09,33,16.30
2013,05,04,09,34,16.30
2013,05,04,09,35,16.30
2013,05,04,09,36,16.30
2013,05,04,09,37,16.30
2013,05,04,09,38,16.30
2013,05,04,09,39,16.30
2013,05,04,09,40,16.30
2013,05,04,09,41,16.30
2013,05,04,09,42,16.30
2013,05,04,09,43,16.30
2013,05,04,09,44,16.30
2013,05,04,09,45,16.30
2013,05,04,09,46,16.40
2013,05,04,09,47,16.40
2013,05,04,09,48,16.40
2013,05,04,09,49,16.50
2013,05,04,09,50,16.60
2013,05,04,09,51,16.70
2013,05,04,09,52,16.80
2013,05,04,09,53,16.90
2013,05,04,09,54,16.90
2013,05,04,09,55,17.00
2013,05,04,09,56,17.00
2013,05,04,09,57,17.00
2013,05,04,09,58,17.10
2013,05,04,09,59,17.10
2013,05,04,10,00,17.10
2013,05,04,10,01,17.20
2013,05,04,10,02,17.20
2013,05,04,10,03,17.20
2013,05,04,10,04,17.20
2013,05,04,10,05,17.30
2013,05,04,10,06,17.30
2013,05,04,10,07,17.30
2013,05,04,10,08,17.20
2013,05,04,10,09,17.20
2013,05,04,10,10,17.20
2013,05,04,10,11,17.20
2013,05,04,10,12,17.20
2013,05,04,10,13,17.30
2013,05,04,10,14,17.30
2013,05,04,10,15,17.40
2013,05,04,10,16,17.50
2013,05,04,10,17,17.50
2013,05,04,10,18,17.60
2013,05,04,10,19,17.60
2013,05,04,10,20,17.60
2013,05,04,10,21,17.60
2013,05,04,10,22,17.60
2013,05,04,10,23,17.60
2013,05,04,10,24,17.60
2013,05,04,10,25,17.50
2013,05,04,10,26,17.50
2013,05,04,10,27,17.40
2013,05,04,10,28,17.40
2013,05,04,10,29,17.40
2013,05,04,10,30,17.40
2013,05,04,10,31,17.50
2013,05,04,10,32,17.50
2013,05,04,10,33,17.50
2013,05,04,10,34,17.60
2013,05,04,10,35,17.70
2013,05,04,10,36,17.80
2013,05,04,10,37,17.80
2013,05,04,10,38,17.90
2013,05,04,10,39,17.80
2013,05,04,10,40,17.80
2013,05,04,10,41,17.90
2013,05,04,10,42,17.90
2013,05,04,10,43,17.90
2013,05,04,10,44,18.00
2013,05,04,10,45,18.00
2013,05,04,10,46,18.10
2013,05,04,10,47,18.10
2013,05,04,10,48,18.20
2013,05,04,10,49,18.20
2013,05,04,10,50,18.20
2013,05,04,10,51,18.20
2013,05,04,10,52,18.20
2013,05,04,10,53,18.10
2013,05,04,10,54,18.00
2013,05,04,10,55,17.90
2013,05,04,10,56,17.90
2013,05,04,10,57,17.90
2013,05,04,10,58,17.90
2013,05,04,10,59,18.00
2013,05,04,11,00,17.90
2013,05,04,11,01,17.90
2013,05,04,11,02,17.80
2013,05,04,11,03,17.80
2013,05,04,11,04,17.80
2013,05,04,11,05,17.80
2013,05,04,11,06,17.90
2013,05,04,11,07,17.90
2013,05,04,11,08,18.00
2013,05,04,11,09,18.00
2013,05,04,11,10,18.10
2013,05,04,11,11,18.20
2013,05,04,11,12,18.10
2013,05,04,11,13,18.20
2013,05,04,11,14,18.20
2013,05,04,11,15,18.20
2013,05,04,11,16,18.20
2013,05,04,11,17,18.20
2013,05,04,11,18,18.30
2013,05,04,11,19,18.30
2013,05,04,11,20,18.30
2013,05,04,11,21,18.40
2013,05,04,11,22,18.40
2013,05,04,11,23,18.50
2013,05,04,11,24,18.60
2013,05,04,11,25,18.60
2013,05,04,11,26,18.60
2013,05,04,11,27,18.60
2013,05,04,11,28,18.60
2013,05,04,11,29,18.50
2013,05,04,11,30,18.30
2013,05,04,11,31,18.30
2013,05,04,11,32,18.30
2013,05,04,11,33,18.30
2013,05,04,11,34,18.30
2013,05,04,11,35,18.30
2013,05,04,11,36,18.20
2013,05,04,11,37,18.20
2013,05,04,11,38,18.20
2013,05,04,11,39,18.20
2013,05,04,11,40,18.30
2013,05,04,11,41,18.30
2013,05,04,11,42,18.30
2013,05,04,11,43,18.30
2013,05,04,11,44,18.30
2013,05,04,11,45,18.20
2013,05,04,11,46,18.30
2013,05,04,11,47,18.30
2013,05,04,11,48,18.50
2013,05,04,11,49,18.50
2013,05,04,11,50,18.40
2013,05,04,11,51,18.40
2013,05,04,11,52,18.40
2013,05,04,11,53,18.40
2013,05,04,11,54,18.40
2013,05,04,11,55,18.40
2013,05,04,11,56,18.50
2013,05,04,11,57,18.50
2013,05,04,11,58,18.60
2013,05,04,11,59,18.60
2013,05,04,12,00,18.70
2013,05,04,12,01,18.80
2013,05,04,12,02,18.80
2013,05,04,12,03,18.90
2013,05,04,12,04,18.90
2013,05,04,12,05,18.90
2013,05,04,12,06,19.00
2013,05,04,12,07,19.10
2013,05,04,12,08,19.20
2013,05,04,12,09,19.20
2013,05,04,12,10,19.30
2013,05,04,12,11,19.40
2013,05,04,12,12,19.50
2013,05,04,12,13,19.50
2013,05,04,12,14,19.60
2013,05,04,12,15,19.60
2013,05,04,12,16,19.60
2013,05,04,12,17,19.60
2013,05,04,12,18,19.60
2013,05,04,12,19,19.60
2013,05,04,12,20,19.60
2013,05,04,12,21,19.60
2013,05,04,12,22,19.70
2013,05,04,12,23,19.80
2013,05,04,12,24,19.90
2013,05,04,12,25,19.80
2013,05,04,12,26,19.80
2013,05,04,12,27,19.80
2013,05,04,12,28,19.80
2013,05,04,12,29,19.70
2013,05,04,12,30,19.70
2013,05,04,12,31,19.80
2013,05,04,12,32,19.90
2013,05,04,12,33,20.00
2013,05,04,12,34,20.10
2013,05,04,12,35,20.20
2013,05,04,12,36,20.30
2013,05,04,12,37,20.30
2013,05,04,12,38,20.30
2013,05,04,12,39,20.30
2013,05,04,12,40,20.20
2013,05,04,12,41,20.20
2013,05,04,12,42,20.20
2013,05,04,12,43,20.30
2013,05,04,12,44,20.20
2013,05,04,12,45,20.20
2013,05,04,12,46,20.20
2013,05,04,12,47,20.10
2013,05,04,12,48,20.00
2013,05,04,12,49,20.00
2013,05,04,12,50,19.90
2013,05,04,12,51,20.00
2013,05,04,12,52,20.10
2013,05,04,12,53,20.20
2013,05,04,12,54,20.20
2013,05,04,12,55,20.20
2013,05,04,12,56,20.20
2013,05,04,12,57,20.10
2013,05,04,12,58,20.10
2013,05,04,12,59,20.10
2013,05,04,13,00,20.10
2013,05,04,13,01,20.00
2013,05,04,13,02,19.90
2013,05,04,13,03,19.90
2013,05,04,13,04,20.00
2013,05,04,13,05,20.10
2013,05,04,13,06,20.10
2013,05,04,13,07,20.10
2013,05,04,13,08,20.20
2013,05,04,13,09,20.20
2013,05,04,13,10,20.20
2013,05,04,13,11,20.30
2013,05,04,13,12,20.30
2013,05,04,13,13,20.40
2013,05,04,13,14,20.50
2013,05,04,13,15,20.50
2013,05,04,13,16,20.60
2013,05,04,13,17,20.70
2013,05,04,13,18,20.70
2013,05,04,13,19,20.70
2013,05,04,13,20,20.80
2013,05,04,13,21,20.80
2013,05,04,13,22,20.70
2013,05,04,13,23,20.60
2013,05,04,13,24,20.60
2013,05,04,13,25,20.60
2013,05,04,13,26,20.60
2013,05,04,13,27,20.70
2013,05,04,13,28,20.80
2013,05,04,13,29,20.80
2013,05,04,13,30,20.90
2013,05,04,13,31,20.90
2013,05,04,13,32,20.90
2013,05,04,13,33,20.90
2013,05,04,13,34,21.00
2013,05,04,13,35,21.00
2013,05,04,13,36,21.00
2013,05,04,13,37,21.10
2013,05,04,13,38,21.10
2013,05,04,13,39,21.00
2013,05,04,13,40,20.90
2013,05,04,13,41,20.90
2013,05,04,13,42,20.90
2013,05,04,13,43,20.90
2013,05,04,13,44,21.00
2013,05,04,13,45,21.00
2013,05,04,13,46,21.00
2013,05,04,13,47,21.10
2013,05,04,13,48,21.10
2013,05,04,13,49,21.10
2013,05,04,13,50,21.10
2013,05,04,13,51,21.20
2013,05,04,13,52,21.30
2013,05,04,13,53,21.40
2013,05,04,13,54,21.40
2013,05,04,13,55,21.40
2013,05,04,13,56,21.40
2013,05,04,13,57,21.40
2013,05,04,13,58,21.50
2013,05,04,13,59,21.50
2013,05,04,14,00,21.60
2013,05,04,14,01,21.60
2013,05,04,14,02,21.60
2013,05,04,14,03,21.60
2013,05,04,14,04,21.60
2013,05,04,14,05,21.60
2013,05,04,14,06,21.60
2013,05,04,14,07,21.60
2013,05,04,14,08,21.60
2013,05,04,14,09,21.60
2013,05,04,14,10,21.60
2013,05,04,14,11,21.70
2013,05,04,14,12,21.70
2013,05,04,14,13,21.80
2013,05,04,14,14,21.90
2013,05,04,14,15,21.80
2013,05,04,14,16,21.80
2013,05,04,14,17,21.80
2013,05,04,14,18,21.60
2013,05,04,14,19,21.60
2013,05,04,14,20,21.60
2013,05,04,14,21,21.60
2013,05,04,14,22,21.60
2013,05,04,14,23,21.70
2013,05,04,14,24,21.80
2013,05,04,14,25,21.80
2013,05,04,14,26,21.80
2013,05,04,14,27,21.80
2013,05,04,14,28,21.90
2013,05,04,14,29,22.00
2013,05,04,14,30,22.10
2013,05,04,14,31,22.10
2013,05,04,14,32,22.10
2013,05,04,14,33,22.20
2013,05,04,14,34,22.20
2013,05,04,14,35,22.30
2013,05,04,14,36,22.40
2013,05,04,14,37,22.50
2013,05,04,14,38,22.50
2013,05,04,14,39,22.50
2013,05,04,14,40,22.60
2013,05,04,14,41,22.70
2013,05,04,14,42,22.70
2013,05,04,14,43,22.80
2013,05,04,14,44,22.80
2013,05,04,14,45,22.70
2013,05,04,14,46,22.70
2013,05,04,14,47,22.70
2013,05,04,14,48,22.70
2013,05,04,14,49,22.80
2013,05,04,14,50,22.80
2013,05,04,14,51,22.70
2013,05,04,14,52,22.70
2013,05,04,14,53,22.80
2013,05,04,14,54,22.80
2013,05,04,14,55,22.80
2013,05,04,14,56,22.80
2013,05,04,14,57,22.80
2013,05,04,14,58,22.90
2013,05,04,14,59,22.90
2013,05,04,15,00,23.00
2013,05,04,15,01,23.00
2013,05,04,15,02,23.10
2013,05,04,15,03,23.10
2013,05,04,15,04,23.20
2013,05,04,15,05,23.20
2013,05,04,15,06,23.30
2013,05,04,15,07,23.30
2013,05,04,15,08,23.30
2013,05,04,15,09,23.40
2013,05,04,15,10,23.40
2013,05,04,15,11,23.40
2013,05,04,15,12,23.40
2013,05,04,15,13,23.50
2013,05,04,15,14,23.40
2013,05,04,15,15,23.40
2013,05,04,15,16,23.40
2013,05,04,15,17,23.40
2013,05,04,15,18,23.50
2013,05,04,15,19,23.60
2013,05,04,15,20,23.70
2013,05,04,15,21,23.80
2013,05,04,15,22,23.80
2013,05,04,15,23,23.90
2013,05,04,15,24,24.00
2013,05,04,15,25,24.00
2013,05,04,15,26,23.90
2013,05,04,15,27,23.90
2013,05,04,15,28,24.00
2013,05,04,15,29,24.00
2013,05,04,15,30,24.10
2013,05,04,15,31,24.10
2013,05,04,15,32,24.20
2013,05,04,15,33,24.30
2013,05,04,15,34,24.40
2013,05,04,15,35,24.40
2013,05,04,15,36,24.50
2013,05,04,15,37,24.40
2013,05,04,15,38,24.40
2013,05,04,15,39,24.30
2013,05,04,15,40,24.30
2013,05,04,15,41,24.20
2013,05,04,15,42,24.20
2013,05,04,15,43,24.20
2013,05,04,15,44,24.20
2013,05,04,15,45,24.10
2013,05,04,15,46,24.10
2013,05,04,15,47,24.20
2013,05,04,15,48,24.30
2013,05,04,15,49,24.30
2013,05,04,15,50,24.40
2013,05,04,15,51,24.40
2013,05,04,15,52,24.40
2013,05,04,15,53,24.40
2013,05,04,15,54,24.50
2013,05,04,15,55,24.50
2013,05,04,15,56,24.60
2013,05,04,15,57,24.60
2013,05,04,15,58,24.40
2013,05,04,15,59,24.30
2013,05,04,16,00,24.30
2013,05,04,16,01,24.20
2013,05,04,16,02,24.00
2013,05,04,16,03,23.90
2013,05,04,16,04,23.80
2013,05,04,16,05,23.80
2013,05,04,16,06,23.90
2013,05,04,16,07,23.90
2013,05,04,16,08,23.80
2013,05,04,16,09,23.80
2013,05,04,16,10,23.80
2013,05,04,16,11,23.80
2013,05,04,16,12,23.80
2013,05,04,16,13,23.80
2013,05,04,16,14,23.80
2013,05,04,16,15,23.90
2013,05,04,16,16,23.90
2013,05,04,16,17,24.00
2013,05,04,16,18,24.10
2013,05,04,16,19,24.10
2013,05,04,16,20,24.20
2013,05,04,16,21,24.30
2013,05,04,16,22,24.30
2013,05,04,16,23,24.30
2013,05,04,16,24,24.40
2013,05,04,16,25,24.40
2013,05,04,16,26,24.50
2013,05,04,16,27,24.60
2013,05,04,16,28,24.60
2013,05,04,16,29,24.60
2013,05,04,16,30,24.50
2013,05,04,16,31,24.40
2013,05,04,16,32,24.40
2013,05,04,16,33,24.50
2013,05,04,16,34,24.50
2013,05,04,16,35,24.50
2013,05,04,16,36,24.50
2013,05,04,16,37,24.50
2013,05,04,16,38,24.60
2013,05,04,16,39,24.60
2013,05,04,16,40,24.60
2013,05,04,16,41,24.60
2013,05,04,16,42,24.70
2013,05,04,16,43,24.70
2013,05,04,16,44,24.70
2013,05,04,16,45,24.70
2013,05,04,16,46,24.80
2013,05,04,16,47,24.80
2013,05,04,16,48,24.80
2013,05,04,16,49,24.80
2013,05,04,16,50,24.80
2013,05,04,16,51,24.90
2013,05,04,16,52,25.00
2013,05,04,16,53,25.00
2013,05,04,16,54,25.10
2013,05,04,16,55,25.20
2013,05,04,16,56,25.30
2013,05,04,16,57,25.40
2013,05,04,16,58,25.50
2013,05,04,16,59,25.50
2013,05,04,17,00,25.60
2013,05,04,17,01,25.60
2013,05,04,17,02,25.60
2013,05,04,17,03,25.50
2013,05,04,17,04,25.50
2013,05,04,17,05,25.40
2013,05,04,17,06,25.30
2013,05,04,17,07,25.10
2013,05,04,17,08,25.00
2013,05,04,17,09,25.00
2013,05,04,17,10,25.00
2013,05,04,17,11,24.90
2013,05,04,17,12,24.90
2013,05,04,17,13,25.00
2013,05,04,17,14,25.10
2013,05,04,17,15,25.10
2013,05,04,17,16,25.10
2013,05,04,17,17,25.00
2013,05,04,17,18,25.00
2013,05,04,17,19,24.90
2013,05,04,17,20,24.80
2013,05,04,17,21,24.70
2013,05,04,17,22,24.50
2013,05,04,17,23,24.40
2013,05,04,17,24,24.30
2013,05,04,17,25,24.20
2013,05,04,17,26,24.20
2013,05,04,17,27,24.10
2013,05,04,17,28,24.10
2013,05,04,17,29,24.00
2013,05,04,17,30,23.90
2013,05,04,17,31,23.90
2013,05,04,17,32,24.00